Temperature
23 23 23 25 26 26 27 28 29 30 31 30 29 30 31 32 32 32 31 31 30 29 29 28 27 26 25 23 23 22 21 20 20 19 18 18 18 18 18 18 18 17 17 17
23 23 25 26 27 27 27 27 28 30 31 30 29 29 30 31 32 31 30 30 29 28 26 26 26 25 24 23 22 21 21 20 19 19 18 18 18 17 17 17 17 17 16 16
23 25 26 25 26 26 26 26 27 28 30 29 28 28 29 30 31 30 29 28 27 26 25 24 24 23 23 22 21 21 20 19 19 18 18 18 17 17 17 16 16 16 16 15
24 26 26 25 25 26 25 27 27 27 28 28 28 26 28 29 29 29 28 26 25 24 23 22 22 21 21 21 20 20 20 19 19 18 18 18 17 17 16 16 15 15 15 14
24 25 26 25 26 26 26 27 27 27 27 26 27 27 28 30 28 27 26 24 21 20 20 19 19 19 20 20 20 19 19 18 18 18 18 17 17 16 16 15 15 14 14 14
25 26 26 26 27 27 27 26 26 26 26 25 26 26 27 29 28 25 23 20 18 18 17 17 18 18 18 18 18 18 18 18 17 17 17 16 16 15 15 14 14 13 13 13
24 25 27 27 26 26 26 25 23 24 24 25 27 27 27 26 25 23 20 17 16 16 15 15 15 16 16 16 16 17 17 16 16 16 16 15 15 14 14 13 13 12 12 12
23 23 26 26 26 25 25 25 23 23 24 26 27 27 25 24 22 19 17 15 14 14 14 14 14 14 14 15 15 15 15 15 15 15 14 14 14 13 13 12 12 12 11 11
22 23 26 26 27 26 25 25 26 25 25 25 26 25 23 22 20 18 16 14 13 12 12 12 13 13 13 13 13 14 14 14 14 13 13 13 12 12 12 11 11 11 10 10
23 22 24 26 26 26 26 26 25 24 23 23 25 24 23 21 19 17 15 13 12 11 11 12 12 12 12 12 12 12 13 12 12 12 12 12 11 11 11 10 10 10 9 9
23 21 22 24 24 25 25 25 25 25 25 24 23 22 23 21 18 16 14 12 11 11 11 11 11 11 11 11 11 11 11 11 11 11 11 10 10 10 10 9 9 8 8 7
23 22 21 22 24 26 25 25 24 23 23 24 24 21 22 19 17 15 13 11 10 10 10 10 10 10 10 10 10 10 10 10 10 10 10 9 9 9 8 8 8 7 7 6
21 21 20 20 22 23 23 24 24 24 24 23 23 20 19 17 15 13 12 10 10 10 10 10 10 10 10 9 9 9 9 9 9 9 8 8 8 8 7 7 7 6 6 6
20 20 19 17 17 18 20 22 23 23 23 23 22 19 17 16 14 12 11 10 9 9 9 9 9 9 9 9 9 8 8 8 8 8 8 7 7 7 6 6 6 5 5 5
21 20 20 18 19 19 19 20 21 21 22 22 21 19 17 15 13 12 10 9 9 9 9 8 8 8 8 8 8 8 8 7 7 7 7 6 6 6 6 5 5 5 5 4
20 19 20 19 19 19 19 19 20 20 20 20 19 16 15 13 12 11 10 9 9 8 8 8 8 8 7 7 7 7 7 7 7 6 6 6 5 5 5 5 4 4 4 3
19 19 19 19 20 20 18 18 18 18 18 18 16 14 13 12 11 10 9 9 8 8 7 7 7 7 7 7 7 7 6 6 6 6 5 5 5 5 4 4 4 3 3 3
19 18 19 19 19 17 16 18 18 17 16 16 14 12 11 10 9 8 8 8 7 7 7 7 7 7 7 6 6 6 6 6 5 5 5 5 4 4 4 3 3 3 3 2
20 18 18 18 18 16 15 16 17 16 14 14 13 12 10 9 8 7 7 7 7 7 7 7 7 6 6 6 6 6 5 5 5 5 5 4 4 4 3 3 3 3 2 2
20 19 18 18 17 15 14 16 17 17 13 13 13 12 11 11 10 7 7 7 6 6 6 6 6 6 6 6 5 5 5 5 5 4 4 4 4 3 3 3 3 2 2 2
19 19 18 17 16 14 15 17 17 15 12 12 12 11 11 10 9 7 6 6 6 6 6 6 6 5 5 5 5 5 5 5 4 4 4 4 3 3 3 3 3 2 2 2
18 17 17 16 15 13 15 16 14 12 12 12 11 10 9 8 7 6 6 6 6 6 5 5 5 5 5 5 5 5 5 4 4 4 4 4 3 3 3 3 3 2 2 2
18 17 16 15 14 14 13 13 12 12 11 11 10 9 8 7 6 6 6 6 5 5 5 5 5 5 5 5 5 5 4 4 4 4 4 4 4 3 3 3 3 3 2 2
18 18 17 15 14 14 13 12 12 11 11 10 9 9 8 7 6 6 6 5 5 5 5 5 5 5 5 5 5 5 5 4 4 4 4 4 4 3 3 3 3 2 2 2
17 17 16 15 15 14 13 12 11 10 10 9 9 8 7 7 6 6 6 6 6 6 6 6 6 5 5 5 5 5 5 4 4 4 4 4 4 4 3 3 3 2 2 1
17 16 16 14 14 14 12 11 10 9 9 8 8 7 7 7 6 6 6 6 6 6 6 6 6 6 5 5 5 5 5 4 4 4 4 5 4 4 4 3 3 2 2 1
Wind_Speed
14 14 16 17 18 20 19 16 15 14 12 14 15 15 15 12 11 10 10 9 7 5 4 6 11 12 13 12 14 13 13 13 12 10 10 9 7 6 5 4 6 6 7 6
15 19 19 17 17 18 19 18 16 11 7 8 10 13 15 14 11 8 6 3 2 5 6 6 8 10 11 12 13 13 12 13 12 9 8 6 7 6 5 6 7 8 8 7
20 16 18 19 18 17 17 16 16 14 8 8 10 14 16 15 11 7 5 3 3 5 7 7 8 6 10 10 10 13 12 12 11 10 8 7 6 6 5 6 6 7 8 8
19 20 15 16 18 18 15 15 16 16 13 11 12 13 16 16 13 9 5 4 6 9 10 11 11 8 6 7 7 8 11 10 10 10 10 11 8 7 6 6 7 8 10 10
17 18 18 16 16 16 15 14 15 16 15 16 15 15 15 16 15 11 8 9 12 14 14 14 12 11 11 9 8 9 10 9 9 8 9 9 8 8 8 9 10 9 9 10
17 16 16 17 15 14 14 14 15 15 14 18 18 17 14 9 12 12 13 14 15 16 16 15 15 15 14 14 13 13 13 12 10 10 9 9 11 12 11 10 10 8 7 8
14 17 16 14 14 15 14 12 10 12 14 17 18 17 9 7 13 18 19 18 16 17 16 16 15 16 15 16 15 14 16 14 13 13 12 11 12 12 11 10 10 9 8 8
10 13 15 14 15 14 16 16 14 12 13 13 17 16 6 17 20 20 19 18 18 17 16 15 14 14 14 15 15 15 16 15 15 14 13 12 12 10 10 10 9 9 8 9
6 9 10 12 14 17 16 17 18 17 18 16 11 5 11 17 18 18 18 18 17 16 15 14 14 14 14 15 14 14 16 16 15 15 15 15 14 13 12 11 10 9 9 9
5 8 9 10 11 16 17 15 10 14 14 15 12 7 9 16 16 16 16 16 16 15 14 13 13 13 13 14 14 15 15 15 15 14 13 13 13 12 12 12 12 10 10 8
7 6 8 8 11 14 14 16 13 12 14 14 12 1 2 14 16 16 16 16 15 14 14 12 12 12 12 13 14 14 15 15 15 14 14 13 12 12 12 11 11 9 8 7
7 6 7 10 11 12 12 14 13 11 12 13 11 1 8 15 17 17 17 16 15 15 13 13 12 12 13 13 13 13 13 14 13 13 13 13 12 12 11 11 9 8 7 6
9 6 7 8 7 6 8 10 11 11 11 11 11 3 12 16 17 17 16 15 15 14 14 13 12 12 13 12 12 12 12 13 13 13 13 12 11 11 10 9 8 8 7 6
4 7 7 5 5 8 11 12 9 10 10 10 7 7 10 14 15 15 15 15 15 14 13 13 12 12 12 12 12 12 12 12 12 12 12 12 11 10 9 9 7 7 6 6
6 9 6 3 5 4 8 11 9 8 8 5 1 5 6 11 14 14 15 15 15 14 13 12 12 11 11 11 11 11 11 11 11 12 11 10 9 9 8 8 7 6 6 6
7 9 11 7 6 5 3 6 8 7 8 6 9 8 11 14 14 14 14 14 14 13 13 12 12 11 10 11 11 11 10 10 10 10 10 9 8 8 7 7 6 6 6 6
8 9 10 9 8 6 3 8 8 12 14 11 9 8 13 14 13 12 13 14 14 14 13 12 11 10 10 10 10 9 9 9 9 9 8 8 7 7 7 7 7 6 5 5
6 9 6 7 6 3 5 11 11 14 17 15 16 15 15 14 14 13 12 14 14 13 12 11 9 9 9 8 8 7 7 8 8 7 7 7 7 7 6 5 5 4 4 4
3 5 6 5 5 2 7 11 11 7 11 12 13 15 17 17 16 12 11 12 12 12 10 9 8 8 8 7 6 6 7 7 7 7 6 6 6 5 4 4 4 4 3 3
2 3 5 7 6 3 6 9 7 2 5 8 9 11 11 8 6 5 8 11 12 11 9 8 7 8 7 6 5 6 6 6 6 6 6 6 5 4 4 4 4 3 3 3
7 6 5 6 3 5 9 11 7 3 3 6 8 8 7 6 8 11 11 11 11 10 9 8 7 7 6 5 5 6 6 6 5 5 5 4 3 2 3 3 3 3 3 3
7 7 7 6 3 4 12 8 7 6 6 7 9 10 14 16 16 14 12 11 11 10 9 8 7 7 5 5 5 6 6 5 4 3 3 2 2 3 3 2 2 2 3 3
4 6 5 5 5 6 9 9 8 7 7 8 10 12 15 16 15 14 12 11 10 10 8 7 8 7 6 5 5 6 5 3 3 2 2 1 1 2 2 2 2 2 3 4
3 4 2 4 7 8 8 9 9 9 9 10 11 12 14 15 15 14 12 10 9 8 8 7 8 8 6 5 5 5 4 3 2 1 0 0 0 0 1 1 3 4 5 6
5 3 2 3 6 7 8 9 9 9 10 11 11 12 13 15 14 12 11 10 8 8 7 7 7 7 7 6 5 4 3 2 1 2 2 2 1 0 1 3 4 5 6 5
5 5 3 3 4 5 8 8 9 9 10 10 12 12 13 13 13 12 10 8 8 8 7 7 7 6 6 5 5 4 2 1 2 2 3 3 2 1 2 4 4 7 6 6
Wind_Direction
211 222 227 227 227 245 263 272 257 242 215 196 218 231 241 234 207 210 216 220 206 197 177 139 134 138 149 157 160 163 165 158 159 165 169 171 164 148 134 119 115 113 116 120
220 226 236 242 240 242 257 269 271 260 209 193 227 242 246 247 224 209 219 198 113 67 51 82 105 132 148 159 160 160 165 162 165 165 163 158 144 131 115 94 83 86 91 93
228 231 226 242 251 246 248 256 264 265 236 210 234 247 247 245 237 212 197 155 93 82 66 63 72 95 135 146 160 169 165 162 164 151 144 136 122 116 109 105 89 78 85 84
236 241 236 230 239 246 248 249 261 269 264 247 226 242 233 228 223 209 177 126 82 62 62 61 57 49 75 121 145 144 147 149 150 147 153 152 150 139 125 112 101 86 77 80
237 235 236 237 238 240 249 254 254 257 261 264 254 250 248 220 202 190 150 105 79 61 55 53 51 50 51 61 91 96 107 113 117 124 135 136 129 119 112 108 102 92 83 83
249 241 236 238 240 243 244 249 256 252 249 247 247 253 252 243 190 154 116 92 79 69 60 55 51 50 53 57 67 75 83 83 91 96 105 112 115 114 116 112 107 98 92 85
244 245 235 233 235 232 231 231 235 232 232 242 236 238 239 85 101 110 102 90 81 74 68 60 54 52 55 58 65 72 77 75 76 81 83 91 100 105 107 107 104 102 96 88
243 244 228 221 228 230 220 228 234 238 239 247 235 227 165 107 101 101 98 93 83 75 69 64 59 59 60 62 67 73 77 77 76 78 79 81 85 88 90 92 98 96 96 94
289 263 235 225 222 234 228 224 241 260 276 279 261 164 117 115 111 108 103 95 87 81 75 69 65 63 64 66 68 74 79 79 78 79 80 80 83 88 93 94 94 96 98 99
290 290 260 232 222 227 245 236 235 246 261 271 267 192 171 149 133 121 111 103 96 89 83 78 73 73 72 73 73 73 77 79 79 80 82 86 85 86 87 88 86 87 87 87
303 282 278 249 221 227 225 241 241 247 252 259 264 285 110 149 138 128 117 110 105 98 91 86 82 81 80 79 78 78 78 79 79 80 82 84 84 85 86 86 85 86 88 88
330 301 286 281 268 261 243 235 238 245 254 264 271 97 90 115 121 118 115 111 106 101 96 92 88 85 82 81 82 82 83 84 85 86 85 85 86 87 87 89 90 89 86 84
339 318 302 293 275 281 275 263 254 250 256 259 264 138 100 106 113 117 118 115 109 104 99 93 88 86 85 84 83 84 85 87 89 89 88 85 85 85 86 85 85 83 80 74
307 299 304 293 290 305 304 308 301 269 253 257 267 138 127 122 123 123 121 116 111 107 102 97 92 88 86 84 83 83 84 86 88 87 86 82 80 81 82 81 77 75 76 74
331 303 311 261 258 261 303 316 310 291 281 276 66 106 120 125 125 123 119 116 112 107 102 98 95 91 89 87 84 83 82 83 86 87 87 86 86 84 81 76 69 61 52 56
333 312 312 287 247 239 266 331 326 339 12 52 78 79 92 101 102 111 115 113 109 104 100 96 92 89 85 85 85 83 80 80 84 88 88 86 85 84 83 80 70 61 50 41
326 326 314 305 306 293 43 27 33 50 45 48 59 81 94 93 96 104 109 109 107 103 95 89 83 78 77 77 80 83 84 85 85 87 88 87 84 78 71 69 65 56 45 35
320 322 305 302 320 340 49 29 44 63 56 67 89 93 91 92 87 83 96 106 105 103 101 96 92 88 84 84 83 85 91 93 93 90 89 88 86 79 71 63 57 50 40 25
327 318 315 311 308 90 38 10 5 39 65 64 95 106 110 108 90 74 82 98 105 105 105 104 103 102 100 96 96 95 94 96 94 88 84 80 78 74 64 54 46 42 23 12
313 292 293 310 325 26 25 347 330 26 75 55 94 115 130 130 103 106 107 106 106 108 109 110 108 105 104 106 111 108 100 97 92 87 80 72 65 59 54 44 34 29 7 6
343 327 327 330 356 73 1 346 343 22 56 61 86 102 105 91 110 127 123 115 115 116 116 115 110 106 112 120 118 108 101 94 93 93 89 80 66 46 69 47 26 6 357 358
348 353 2 359 14 34 6 24 48 72 83 86 91 98 103 108 115 122 122 122 121 120 119 119 117 114 119 124 119 109 100 101 104 97 88 79 41 10 50 26 6 346 341 343
25 28 7 36 68 79 56 68 75 82 91 97 103 110 117 121 124 125 125 126 128 128 130 133 129 124 121 117 113 112 116 117 106 84 71 62 47 31 23 355 356 2 10 5
59 57 53 89 104 97 85 82 76 78 90 103 113 120 124 125 127 127 128 129 131 134 138 141 135 126 120 117 109 103 98 85 79 61 344 257 159 325 70 17 17 33 26 14
350 351 16 90 121 112 93 84 84 84 92 103 110 118 124 126 128 129 130 133 138 141 140 135 126 122 120 115 112 108 99 78 36 351 327 326 349 315 144 98 54 52 68 54
36 30 26 71 79 103 103 93 96 100 102 109 116 118 124 128 132 132 133 137 137 132 126 123 121 119 120 120 111 99 84 42 359 344 334 330 340 9 38 115 121 73 96 117
Height
1475 1476 1474 1468 1465 1463 1456 1453 1450 1441 1433 1443 1450 1450 1447 1444 1446 1449 1452 1454 1456 1460 1463 1466 1470 1474 1480 1485 1490 1494 1499 1502 1505 1509 1513 1517 1521 1524 1527 1529 1532 1533 1534 1536
1471 1472 1466 1461 1458 1458 1458 1458 1451 1440 1434 1443 1449 1450 1445 1443 1444 1448 1451 1454 1457 1461 1464 1467 1469 1473 1477 1483 1488 1492 1496 1499 1503 1506 1510 1514 1518 1521 1524 1526 1528 1530 1531 1533
1467 1461 1459 1461 1459 1459 1459 1459 1454 1447 1440 1443 1452 1456 1449 1444 1444 1447 1451 1455 1458 1462 1466 1469 1471 1474 1476 1480 1484 1489 1492 1496 1500 1504 1508 1512 1515 1518 1521 1523 1525 1527 1529 1530
1459 1455 1454 1456 1459 1457 1461 1454 1453 1451 1452 1453 1452 1465 1449 1443 1444 1447 1452 1456 1460 1464 1466 1469 1472 1474 1475 1478 1482 1486 1489 1493 1497 1501 1505 1508 1511 1515 1518 1521 1523 1525 1526 1528
1454 1451 1452 1454 1453 1453 1455 1451 1452 1453 1455 1457 1451 1458 1447 1434 1443 1447 1453 1459 1463 1467 1469 1471 1474 1475 1476 1479 1480 1484 1488 1492 1495 1499 1503 1506 1510 1513 1516 1518 1520 1522 1524 1526
1448 1445 1445 1447 1448 1449 1450 1453 1453 1452 1455 1468 1456 1458 1450 1435 1436 1446 1455 1462 1467 1470 1473 1475 1477 1478 1479 1480 1481 1485 1488 1491 1495 1498 1501 1505 1508 1511 1514 1516 1518 1521 1523 1525
1450 1444 1441 1443 1448 1449 1451 1461 1472 1472 1470 1463 1446 1450 1447 1439 1439 1448 1459 1466 1470 1473 1476 1479 1481 1482 1482 1483 1484 1487 1490 1493 1496 1499 1502 1505 1508 1510 1513 1515 1518 1520 1523 1524
1455 1452 1440 1439 1445 1448 1450 1456 1470 1474 1466 1452 1437 1441 1444 1444 1450 1458 1464 1469 1472 1476 1479 1483 1485 1487 1487 1488 1489 1490 1492 1495 1497 1500 1503 1506 1509 1511 1514 1516 1519 1521 1523 1524
1456 1451 1436 1436 1438 1442 1446 1450 1448 1456 1454 1455 1441 1441 1451 1450 1457 1463 1468 1473 1477 1480 1483 1487 1489 1490 1491 1492 1493 1494 1496 1498 1500 1503 1505 1508 1511 1514 1516 1518 1520 1521 1523 1525
1450 1454 1440 1435 1436 1437 1440 1440 1449 1457 1465 1464 1447 1446 1451 1455 1462 1468 1473 1478 1482 1486 1488 1491 1493 1494 1495 1496 1497 1498 1500 1502 1504 1507 1509 1512 1514 1517 1519 1520 1522 1523 1525 1526
1448 1455 1449 1439 1441 1441 1443 1444 1445 1447 1448 1457 1459 1461 1444 1452 1462 1470 1477 1482 1487 1490 1493 1495 1497 1498 1500 1501 1502 1504 1505 1507 1509 1511 1513 1515 1517 1519 1521 1523 1525 1526 1527 1528
1451 1452 1456 1449 1437 1434 1435 1439 1443 1455 1453 1447 1452 1467 1450 1456 1466 1475 1482 1487 1491 1494 1497 1499 1501 1503 1504 1506 1507 1509 1511 1513 1515 1516 1518 1519 1521 1522 1524 1525 1527 1528 1529 1530
1458 1459 1465 1460 1451 1444 1442 1438 1438 1441 1445 1449 1454 1470 1462 1467 1474 1481 1487 1491 1494 1497 1500 1502 1505 1507 1509 1511 1512 1514 1516 1518 1520 1521 1522 1523 1524 1526 1527 1528 1529 1530 1531 1531
1461 1460 1468 1479 1476 1467 1459 1449 1443 1444 1449 1450 1451 1465 1468 1473 1480 1486 1491 1495 1498 1501 1504 1506 1509 1511 1513 1515 1517 1519 1520 1522 1524 1525 1526 1527 1528 1529 1529 1530 1531 1532 1532 1532
1461 1462 1462 1466 1463 1463 1461 1455 1450 1450 1447 1451 1456 1464 1471 1477 1482 1488 1493 1498 1501 1505 1507 1510 1512 1515 1517 1519 1521 1523 1524 1526 1527 1528 1529 1530 1531 1531 1531 1532 1532 1532 1533 1533
1463 1465 1462 1463 1461 1460 1461 1461 1457 1455 1453 1455 1460 1474 1478 1483 1488 1492 1496 1501 1505 1509 1512 1514 1516 1518 1520 1522 1523 1525 1527 1529 1530 1531 1532 1533 1533 1533 1533 1533 1533 1533 1533 1533
1466 1467 1468 1464 1457 1457 1467 1469 1466 1466 1465 1466 1475 1485 1487 1490 1494 1498 1501 1505 1509 1512 1515 1517 1519 1521 1523 1525 1526 1528 1529 1531 1532 1533 1534 1535 1535 1535 1535 1535 1534 1534 1534 1534
1471 1470 1468 1464 1466 1480 1482 1471 1469 1473 1477 1478 1485 1491 1494 1497 1500 1504 1506 1509 1512 1515 1517 1520 1522 1524 1526 1528 1529 1531 1532 1533 1534 1535 1536 1537 1537 1537 1537 1536 1535 1535 1534 1534
1469 1471 1471 1470 1472 1479 1483 1480 1478 1479 1487 1489 1491 1495 1499 1501 1505 1510 1512 1513 1515 1518 1520 1523 1525 1527 1529 1531 1532 1534 1535 1536 1537 1537 1538 1538 1539 1538 1538 1537 1536 1535 1535 1534
1467 1468 1472 1472 1479 1490 1494 1484 1480 1481 1493 1495 1495 1498 1501 1502 1507 1516 1517 1518 1519 1521 1523 1525 1527 1529 1531 1533 1534 1536 1538 1538 1539 1539 1540 1540 1540 1539 1539 1538 1537 1536 1535 1534
1473 1471 1474 1476 1484 1492 1491 1484 1480 1491 1502 1500 1499 1500 1502 1504 1509 1516 1518 1520 1522 1524 1526 1528 1530 1532 1534 1535 1537 1538 1540 1540 1541 1541 1541 1541 1541 1540 1539 1538 1537 1536 1535 1534
1479 1480 1481 1482 1490 1500 1494 1489 1494 1502 1502 1502 1503 1504 1505 1508 1512 1517 1520 1523 1525 1527 1529 1531 1533 1535 1536 1538 1539 1540 1541 1542 1542 1542 1542 1542 1541 1541 1540 1539 1537 1536 1535 1534
1481 1486 1486 1491 1499 1500 1499 1499 1501 1502 1503 1504 1506 1507 1509 1512 1516 1519 1523 1526 1528 1530 1532 1534 1536 1537 1539 1540 1541 1542 1543 1543 1544 1543 1543 1543 1542 1541 1540 1539 1538 1537 1535 1534
1482 1485 1487 1492 1497 1499 1501 1503 1504 1505 1506 1507 1508 1511 1513 1515 1519 1522 1525 1528 1530 1532 1534 1536 1538 1539 1541 1542 1543 1543 1544 1544 1544 1544 1543 1543 1542 1541 1540 1539 1538 1537 1535 1533
1486 1487 1489 1493 1498 1501 1504 1505 1506 1508 1509 1510 1511 1513 1516 1518 1522 1525 1528 1530 1532 1535 1537 1539 1540 1541 1543 1544 1544 1545 1545 1545 1545 1544 1543 1543 1541 1540 1539 1538 1537 1536 1534 1533
1487 1490 1492 1497 1500 1501 1506 1507 1509 1510 1511 1513 1514 1517 1520 1522 1525 1527 1530 1533 1535 1537 1539 1541 1542 1543 1544 1545 1546 1546 1546 1546 1545 1544 1543 1542 1541 1540 1539 1538 1536 1535 1534 1532